Location: Ottawa
(45.4167°N, 75.7000°W)
Time: 05:16:00
(UTC-04:00)

Envisat - Pass Details

Date: 11 October 2017
Orbit: 764 x 766 km, 98.2° (Epoch: 17 October)

Event Time Altitude Azimuth Distance (km) Brightness Sun altitude
Exits shadow 22:10:56 17° 270° (W) 1,881 5.4 -38.9°
Maximum altitude 22:10:56 17° 270° (W) 1,881 5.4 -38.9°
Drops below altitude 10° 22:14:09 10° 310° (NW) 2,309 6.2 -39.4°
Sets 22:17:20 0° 331° (NNW) 3,241 7.0 -39.8°
